Change the Weather History Date:

Wednesday, December 26, 2012

  Actual Average Record
Temperature  
Mean Temperature 56 °F -  
Max Temperature 60 °F 62 °F 79 °F (2013)
Min Temperature 51 °F 45 °F 43 °F (2002)
Degree Days  
Heating Degree Days 10    
Growing Degree Days 6 (Base 50)    
Moisture  
Dew Point 47 °F    
Average Humidity 76    
Maximum Humidity 92    
Minimum Humidity 52    
Precipitation  
Precipitation 0.03 in - - ()
Sea Level Pressure  
Sea Level Pressure 29.97 in    
Wind  
Wind Speed 4 mph (SSW)    
Max Wind Speed 10 mph    
Max Gust Speed 16 mph    
Visibility 9 miles    
Events Rain    
Averages and records for this station are not official NWS values.
T = Trace of Precipitation, MM = Missing Value Source: NWS Daily Summary

Daily Weather History Graph

Daily Weather History Graph

Search for Another Location

Airport or City:

Trip Planner

Search our weather history database for the weather conditions in past years. The results will help you decide how hot, cold, wet, or windy it might be!

Date:

Astronomy

Dec. 26, 2012 Rise Set
Actual Time 6:50 AM PST 4:49 PM PST
Civil Twilight 6:23 AM PST 5:16 PM PST
Nautical Twilight 5:52 AM PST 5:47 PM PST
Astronomical Twilight 5:22 AM PST 6:17 PM PST
Moon 3:45 PM PST (12/26) 5:19 AM PST (12/26)
Length of Visible Light 10h 53m
Length of Day
9h 58m
Waxing Gibbous, 98% of the Moon is Illuminated
Dec 26
Waxing Gibbous
Dec 28
Full
Jan 4
Last Quarter
Jan 11
New
Jan 18
First Quarter

Hourly Weather History & Observations

Time (PST) Temp. Dew Point Humidity Pressure Visibility Wind Dir Wind Speed Gust Speed Precip Events Conditions
12:53 AM 51.1 °F 46.9 °F 86% 29.98 in 9.0 mi Calm Calm - N/A   Partly Cloudy
1:11 AM 51.8 °F 46.4 °F 82% 29.99 in 10.0 mi Calm Calm - N/A   Mostly Cloudy
1:46 AM 51.8 °F 46.4 °F 82% 29.99 in 10.0 mi East 3.5 mph - N/A   Overcast
1:53 AM 52.0 °F 46.9 °F 83% 29.99 in 9.0 mi ENE 3.5 mph - N/A   Overcast
2:53 AM 51.1 °F 46.9 °F 86% 29.97 in 10.0 mi East 3.5 mph - N/A   Mostly Cloudy
3:53 AM 51.1 °F 46.9 °F 86% 29.95 in 10.0 mi East 4.6 mph - N/A   Mostly Cloudy
4:30 AM 51.8 °F 46.4 °F 82% 29.94 in 10.0 mi East 4.6 mph - N/A   Mostly Cloudy
4:53 AM 52.0 °F 46.0 °F 80% 29.94 in 10.0 mi ESE 5.8 mph - N/A   Mostly Cloudy
5:53 AM 52.0 °F 46.9 °F 83% 29.94 in 4.0 mi SSE 5.8 mph - 0.01 in Rain Light Rain
6:49 AM 51.8 °F 48.2 °F 88% 29.96 in 5.0 mi SSE 8.1 mph - 0.02 in   Overcast
6:53 AM 51.1 °F 48.0 °F 89% 29.96 in 6.0 mi SSE 8.1 mph - 0.02 in   Overcast
7:09 AM 51.8 °F 48.2 °F 88% 29.96 in 7.0 mi SSE 8.1 mph - N/A   Overcast
7:53 AM 51.1 °F 48.9 °F 92% 29.96 in 4.0 mi SSE 8.1 mph - 0.00 in Rain Light Rain
8:02 AM 51.8 °F 48.2 °F 88% 29.97 in 6.0 mi SSE 6.9 mph - 0.00 in   Overcast
8:11 AM 51.8 °F 48.2 °F 88% 29.97 in 7.0 mi SSE 6.9 mph - 0.00 in   Overcast
8:53 AM 53.1 °F 50.0 °F 89% 29.99 in 6.0 mi South 8.1 mph - 0.00 in   Overcast
9:30 AM 57.2 °F 53.6 °F 88% 29.99 in 10.0 mi SSW 10.4 mph - N/A   Overcast
9:53 AM 57.9 °F 50.0 °F 75% 30.00 in 10.0 mi West 9.2 mph - N/A   Mostly Cloudy
10:37 AM 59.0 °F 46.4 °F 63% 30.00 in 10.0 mi West 8.1 mph 16.1 mph N/A   Scattered Clouds
10:53 AM 59.0 °F 48.0 °F 67% 30.00 in 10.0 mi West 5.8 mph 16.1 mph N/A   Partly Cloudy
11:53 AM 59.0 °F 43.0 °F 55% 29.97 in 10.0 mi WNW 8.1 mph - N/A   Clear
12:53 PM 59.0 °F 44.1 °F 58% 29.96 in 10.0 mi West 8.1 mph - N/A   Mostly Cloudy
12:59 PM 59.0 °F 44.6 °F 59% 29.96 in 1.8 mi West 5.8 mph - N/A   Haze
1:14 PM 60.8 °F 42.8 °F 52% 29.96 in 10.0 mi WNW 8.1 mph - N/A   Mostly Cloudy
1:53 PM 59.0 °F 44.1 °F 58% 29.95 in 10.0 mi Variable 5.8 mph - N/A   Mostly Cloudy
2:53 PM 57.9 °F 44.1 °F 60% 29.96 in 10.0 mi Variable 5.8 mph - N/A   Mostly Cloudy
3:53 PM 57.0 °F 44.1 °F 62% 29.97 in 10.0 mi Variable 5.8 mph - N/A   Partly Cloudy
4:53 PM 57.0 °F 43.0 °F 59% 29.97 in 10.0 mi WNW 4.6 mph - N/A   Partly Cloudy
5:53 PM 55.9 °F 44.1 °F 64% 29.98 in 10.0 mi Variable 4.6 mph - N/A   Partly Cloudy
6:53 PM 55.9 °F 46.0 °F 69% 29.99 in 10.0 mi Calm Calm - N/A   Mostly Cloudy
7:01 PM 55.4 °F 46.4 °F 72% 29.98 in 10.0 mi Calm Calm - N/A   Mostly Cloudy
7:14 PM 55.4 °F 46.4 °F 72% 29.98 in 10.0 mi West 4.6 mph - N/A   Mostly Cloudy
7:25 PM 55.4 °F 46.4 °F 72% 29.98 in 10.0 mi West 5.8 mph - N/A   Mostly Cloudy
7:53 PM 55.9 °F 46.0 °F 69% 29.98 in 10.0 mi Variable 4.6 mph - N/A   Mostly Cloudy
8:53 PM 55.0 °F 46.9 °F 74% 29.97 in 10.0 mi Calm Calm - N/A   Overcast
9:53 PM 54.0 °F 46.9 °F 77% 29.98 in 10.0 mi Calm Calm - N/A   Overcast
10:40 PM 53.6 °F 46.4 °F 77% 29.98 in 10.0 mi Calm Calm - N/A   Scattered Clouds
10:53 PM 53.1 °F 46.9 °F 80% 29.97 in 10.0 mi Calm Calm - N/A   Clear
11:31 PM 51.8 °F 46.4 °F 82% 29.97 in 10.0 mi Calm Calm - N/A   Mostly Cloudy
11:53 PM 51.1 °F 46.9 °F 86% 29.97 in 10.0 mi Calm Calm - N/A   Overcast